OBJECT F (43763 NORAD) Tracking and Keplerian Element Data

This shows tracking and keplerian element data for the satellite.

Feedback or suggestion? Click here.




ElementValue
Catalog43763
NameOBJECT F
Epoch Orbit674
Epoch Day17.84890228
Epoch Year2019
RAAN91.5856
Inclination97.7625
Eccentricity0.0014624
Argument of Perigee110.4509
Mean Anonmoly249.8231
Mean Motion14.9547964
Decay Rate-1.82E-06
L11 43763U 18099F 19017.84890228 -.00000182 00000-0 -11143-4 0 9996
L22 43763 97.7625 91.5856 0014624 110.4509 249.8231 14.95479640 6747

Live tracking and technical data element details for OBJECT F (NORAD 43763). OBJECT F can be tracked NOW for your location showing map with azimuth and elevation plus other details from your city location.

Track the satellite on the map from your city or location and see movement details for azimuth, elevation, latitude, longitude, range, height, and movement on the map or in text.







IsCatalogInMostPopularTable: catalog: 43763, numindb: 26
Update: records affected: 1



GetName: 43763 OBJECT F

Hit Count: updated at: Wed, 23 Jan 2019 03:09:55 GMT